DLH05M EDDM-LFMN

Flight info

Callsign DLH05M
Flight time N/A
Altitude 35000
Route TURBU6E/08R TURBU Y107 TOBSO DCT BAKOR DCT RENTA DCT ATPED DCT LUSIL DCT EVANO DCT ENOBA Z185 ASBOP/N0382F190 Z185 BORDI
Aircraft A320/M-SDE3FGHIRWY/LB1

Departure

Time 2026-04-30 13:40
Airport Munich Airport (EDDM)

Arrival

Time N/A
Airport Nice-Côte d'Azur Airport (LFMN)
Time Latitude Longitude Altitude Speed Heading
2026-04-30 13:16 48.35161 11.79363 1473 ft 0 kts 263°
2026-04-30 13:29 48.35164 11.79397 1482 ft 4 kts 263°
2026-04-30 13:29 48.35170 11.79468 1473 ft 4 kts 246°
2026-04-30 13:30 48.35215 11.79495 1480 ft 0 kts 173°
2026-04-30 13:32 48.35176 11.79502 1475 ft 6 kts 173°
2026-04-30 13:33 48.34997 11.79533 1478 ft 18 kts 173°
2026-04-30 13:33 48.34806 11.79546 1481 ft 9 kts 211°
2026-04-30 13:34 48.34784 11.79456 1479 ft 11 kts 262°
2026-04-30 13:34 48.34741 11.78903 1485 ft 22 kts 263°
2026-04-30 13:35 48.34722 11.78657 1475 ft 25 kts 263°
2026-04-30 13:35 48.34683 11.78152 1478 ft 24 kts 263°
2026-04-30 13:36 48.34636 11.77551 1476 ft 33 kts 263°
2026-04-30 13:36 48.34609 11.77200 1478 ft 33 kts 264°
2026-04-30 13:36 48.34566 11.76631 1474 ft 25 kts 263°
2026-04-30 13:37 48.34547 11.76384 1485 ft 23 kts 263°
2026-04-30 13:37 48.34512 11.75941 1481 ft 20 kts 263°
2026-04-30 13:38 48.34417 11.75787 1478 ft 15 kts 170°
2026-04-30 13:38 48.34346 11.75903 1479 ft 16 kts 113°
2026-04-30 13:38 48.34242 11.76270 1483 ft 23 kts 113°
2026-04-30 13:39 48.34209 11.76952 1474 ft 68 kts 83°
2026-04-30 13:39 48.34402 11.79400 1987 ft 136 kts 84°
2026-04-30 13:40 48.34468 11.80337 2488 ft 137 kts 83°
2026-04-30 13:40 48.34568 11.81801 3028 ft 150 kts 83°
2026-04-30 13:40 48.34739 11.84065 3529 ft 179 kts 83°
2026-04-30 13:40 48.34845 11.85389 3716 ft 200 kts 83°
2026-04-30 13:41 48.35076 11.88331 4599 ft 221 kts 83°
2026-04-30 13:41 48.35251 11.90642 5615 ft 222 kts 84°
2026-04-30 13:41 48.35425 11.92978 6531 ft 227 kts 85°
2026-04-30 13:41 48.35390 11.94592 7100 ft 232 kts 102°
2026-04-30 13:42 48.34629 11.96760 7877 ft 246 kts 130°
2026-04-30 13:42 48.33157 11.98264 8418 ft 269 kts 158°
2026-04-30 13:42 48.29100 11.98597 9394 ft 317 kts 180°
2026-04-30 13:43 48.26854 11.98340 9801 ft 338 kts 181°
2026-04-30 13:43 48.24480 11.98008 10514 ft 346 kts 182°
2026-04-30 13:43 48.22054 11.97664 11193 ft 354 kts 182°
2026-04-30 13:43 48.19548 11.97333 11931 ft 361 kts 182°
2026-04-30 13:44 48.17061 11.97067 12671 ft 366 kts 181°
2026-04-30 13:44 48.14503 11.96843 13390 ft 371 kts 180°
2026-04-30 13:44 48.11905 11.96641 14127 ft 376 kts 180°
2026-04-30 13:44 48.09271 11.96438 14729 ft 382 kts 180°
2026-04-30 13:45 48.03896 11.95989 16019 ft 392 kts 181°
2026-04-30 13:45 48.01162 11.95747 16649 ft 396 kts 181°
2026-04-30 13:45 47.98390 11.95499 17268 ft 401 kts 181°
2026-04-30 13:46 47.95590 11.95248 17903 ft 406 kts 181°
2026-04-30 13:46 47.92748 11.94993 18480 ft 412 kts 181°
2026-04-30 13:46 47.89873 11.94762 19012 ft 416 kts 180°
2026-04-30 13:46 47.86961 11.94639 19559 ft 420 kts 178°
2026-04-30 13:47 47.84025 11.94594 20089 ft 424 kts 177°
2026-04-30 13:47 47.81059 11.94587 20643 ft 428 kts 177°
2026-04-30 13:47 47.78058 11.94583 21191 ft 433 kts 177°
2026-04-30 13:47 47.75041 11.94569 21708 ft 437 kts 177°
2026-04-30 13:48 47.71985 11.94536 22224 ft 441 kts 177°
2026-04-30 13:48 47.68900 11.94487 22721 ft 445 kts 177°
2026-04-30 13:48 47.65787 11.94426 23230 ft 449 kts 177°
2026-04-30 13:48 47.62646 11.94362 23718 ft 453 kts 177°
2026-04-30 13:49 47.59482 11.94301 24128 ft 457 kts 177°
2026-04-30 13:49 47.56298 11.94243 24502 ft 458 kts 177°
2026-04-30 13:49 47.53104 11.94182 24891 ft 460 kts 177°
2026-04-30 13:49 47.49897 11.94121 25295 ft 462 kts 176°
2026-04-30 13:50 47.46667 11.94062 25649 ft 465 kts 176°
2026-04-30 13:50 47.40201 11.93435 26410 ft 474 kts 184°
2026-04-30 13:50 47.36925 11.92778 26802 ft 476 kts 184°
2026-04-30 13:51 47.33635 11.92116 27176 ft 479 kts 184°
2026-04-30 13:51 47.30323 11.91446 27527 ft 481 kts 184°
2026-04-30 13:51 47.27005 11.90779 27862 ft 483 kts 184°
2026-04-30 13:51 47.23662 11.90115 28226 ft 486 kts 184°
2026-04-30 13:52 47.20301 11.89453 28552 ft 488 kts 184°
2026-04-30 13:52 47.16928 11.88794 28866 ft 490 kts 183°
2026-04-30 13:52 47.13546 11.88127 29180 ft 492 kts 183°
2026-04-30 13:52 47.10139 11.87450 29496 ft 495 kts 183°